Weather Roundup
Issued by NWS

Home | Current Version | Previous Version | Graphics & Text | Print | Product List | Glossary Off
Versions: 1 2 3 4 5 6 7 8 9 10 11 12 13 14 15 16 17 18 19 20 21 22 23 24 25 26 27 28 29 30 31 32 33 34 35 36 37 38 39 40 41 42 43 44 45 46 47 48 49 50

000
NZUS93 KARX 290659
HRRWXR

CURRENT HOURLY OBSERVATIONS ACROSS
MUCH OF THE UPPER MISSISSIPPI VALLEY
NATIONAL WEATHER SERVICE LA CROSSE WI
100 AM CST THU JAN 29 2015


...SOUTHEAST MINNESOTA...


CITY           SKY/WX    TMP DP  RH WIND       PRES   REMARKS
ROCHESTER      FRZ RAIN  31  30  96 N14       29.82R VSB 1   WCI  21
ROCHESTER/MAYO CLOUDY    31  31  98 NW10G17   29.83R WCI  22
WINONA         CLOUDY    32  28  86 CALM      29.83R
AUSTIN         CLOUDY    32  30  93 NW16      29.83R FOG     WCI  21
ALBERT LEA     CLOUDY    32  32 100 N14G28    29.85R FOG     WCI  22
DODGE CENTER   FOG       30  30 100 N15       29.83R VSB 3/4 WCI  19
PRESTON        CLOUDY    30  29  96 N8        29.80S FOG     WCI  22
OWATONNA       CLOUDY    30  30 100 NW17      29.87R FOG     WCI  18
FARIBAULT      CLOUDY    30  30 100 NW12      29.88R FOG     WCI  21
$$

...ELSEWHERE IN MINNESOTA...


CITY           SKY/WX    TMP DP  RH WIND       PRES   REMARKS
MINNEAPOLIS    CLOUDY    31  28  89 NW9       29.88R FOG     WCI  23
INTNL FALLS    CLOUDY    28  23  81 NW16      29.90R WCI  16
DULUTH         FRZ DRZL  29  26  89 NW9       29.81R FOG     WCI  20
RED WING       CLOUDY    30  30 100 NW8       29.85S FOG     WCI  23
REDWOOD FALLS  CLOUDY    33  31  92 NW21G31   29.96R WCI  21
MANKATO        CLOUDY    32  28  86 NW16      29.90R WCI  21
WORTHINGTON    CLOUDY   N/A N/A N/A N26G39    29.96R
FAIRMONT       CLOUDY    34  28  80 NW21G26   29.89R WCI  22
$$

...SOUTHWEST WISCONSIN...


CITY           SKY/WX    TMP DP  RH WIND       PRES   REMARKS
LA CROSSE      CLOUDY    32  28  85 N6        29.81S FOG     WCI  26
PRAIRIE DU CHI CLOUDY    33  28  83 CALM      29.77S
BOSCOBEL       CLOUDY    34  28  79 CALM      29.78R
LONE ROCK      NOT AVBL
PLATTEVILLE    CLOUDY    32  30  92 N6        29.73R WCI  26
FORT MC COY    CLOUDY    30  29  98 CALM      29.81R FOG
VIROQUA        CLOUDY    31  31 100 N5        29.77R WCI  26
WIS DELLS      NOT AVBL
$$

...ELSEWHERE IN WISCONSIN...


CITY           SKY/WX    TMP DP  RH WIND       PRES   REMARKS
MILWAUKEE      CLOUDY    33  24  69 S8        29.78F WCI  26
MADISON        CLOUDY    33  26  75 CALM      29.76F
GREEN BAY      CLOUDY    31  25  78 S5        29.81F WCI  26
EAU CLAIRE     CLOUDY    28  25  88 NW5       29.82S FOG     WCI  23
BLACK RVR FLS  CLOUDY    29  29 100 CALM      29.81R FOG
MEDFORD        CLOUDY    25  23  94 CALM      29.78S FOG
WAUSAU         CLOUDY    25  24  96 CALM      29.77F FOG
WIS RAPIDS     CLOUDY    27  23  85 CALM      29.81R FOG
MARSHFIELD     CLOUDY    27  25  92 CALM      29.78F FOG
RICE LAKE      FOG       28  27  97 W3        29.85S VSB 1/2
$$

...NORTHEAST IOWA...


CITY           SKY/WX    TMP DP  RH WIND       PRES   REMARKS
DECORAH        CLOUDY    30  30 100 N6        29.77R FOG     WCI  24
MASON CITY     CLOUDY    33  31  92 N21G31    29.84R FOG     WCI  21
CHARLES CITY   MIX PCPN  32  32 100 NW12      29.80R WCI  23
OELWEIN        CLOUDY    32  32 100 N9        29.75S WCI  24
$$

...ELSEWHERE IN IOWA...


CITY           SKY/WX    TMP DP  RH WIND       PRES   REMARKS
DES MOINES     CLOUDY    37  30  75 N28G37    29.83R WCI  25
IOWA CITY      CLEAR     33  31  92 N8        29.71R WCI  26
FORT DODGE     CLOUDY    34  28  80 NW15G24   29.89R WCI  24
$$

...NORTHERN ILLINOIS...


CITY           SKY/WX    TMP DP  RH WIND       PRES   REMARKS
CHICAGO-OHARE  CLOUDY    34  26  72 S12       29.77F WCI  25
CHICAGO-MIDWAY CLOUDY    37  26  64 S13       29.79F WCI  29
MOLINE         MOCLDY    38  31  76 CALM      29.66F
ROCKFORD       CLOUDY    35  28  75 S15       29.74F WCI  25
PEORIA         CLOUDY    39  32  76 S12       29.71F WCI  32
$$

NOTE: "FAIR" INDICATES FEW OR NO CLOUDS BELOW 12,000 FEET WITH NO
SIGNIFICANT WEATHER AND/OR OBSTRUCTIONS TO VISIBILITY. WIND
SPEEDS ARE IN MILES-PER-HOUR.



USA.gov is the U.S. government's official web portal to all federal, state and local government web resources and services.